Terminal Aerodrome Forecast
Issued by NWS

Home | Current Version | Previous Version | Graphics & Text | Print | Product List | Glossary On
Versions: 1 2 3 4 5 6 7 8 9 10 11 12 13 14 15 16 17 18 19
000
FTUS43 KUNR 151126
TAFGCC
TAF
KGCC 151126Z 1512/1612 33015G25KT P6SM OVC023
     FM151600 35012G22KT P6SM -SHRA OVC015
     FM152000 34020G30KT P6SM -RA OVC007
     FM160100 31012KT 4SM -RASN BR OVC004=

USA.gov is the U.S. government's official web portal to all federal, state and local government web resources and services.